Beaver, WV

12:45 PM EDT on July 25, 2016 (GMT -0400)
Raleigh County Memorial

Weather History for KBKW - October, 2014

Change the Weather History Date:

Monday, October 6, 2014

  Actual Average Record
Temperature  
Mean Temperature 60 °F 56 °F  
Max Temperature 69 °F 66 °F 88 °F (1941)
Min Temperature 50 °F 46 °F 27 °F (1964)
Degree Days  
Heating Degree Days 5 9  
Month to date heating degree days 45 52  
Since 1 July heating degree days 133 186  
Cooling Degree Days 0 0  
Month to date cooling degree days 0 2  
Year to date cooling degree days 602 552  
Growing Degree Days 7 (Base 50)    
Moisture  
Dew Point 44 °F    
Average Humidity 67    
Maximum Humidity 93    
Minimum Humidity 40    
Precipitation  
Precipitation 1.40 in 0.08 in 1.40 in (2014)
Month to date precipitation 1.90 0.48  
Year to date precipitation 28.62 33.15  
Snow  
Snow 0.00 in - - ()
Month to date snowfall 0.0  
Since 1 September snowfall 0.0  
Snow Depth 0.00 in    
Sea Level Pressure  
Sea Level Pressure 29.94 in    
Wind  
Wind Speed 11 mph (SW)    
Max Wind Speed 26 mph    
Max Gust Speed 36 mph    
Visibility 8 miles    
Events Rain    
T = Trace of Precipitation, MM = Missing Value Source: NWS Daily Summary

Daily Weather History Graph

Daily Weather History Graph

Search for Another Location

Airport or City:

Trip Planner

Search our weather history database for the weather conditions in past years. The results will help you decide how hot, cold, wet, or windy it might be!

Date:

Astronomy

Oct. 06, 2014 Rise Set
Actual Time 7:24 AM EDT 7:00 PM EDT
Civil Twilight 6:58 AM EDT 7:26 PM EDT
Nautical Twilight 6:27 AM EDT 7:56 PM EDT
Astronomical Twilight 5:57 AM EDT 8:27 PM EDT
Moon 5:54 PM EDT (10/6) 5:11 AM EDT (10/6)
Length of Visible Light 12h 27m
Length of Day
11h 35m
Waxing Gibbous, 95% of the Moon is Illuminated
Oct 6
Waxing Gibbous
Oct 8
Full
Oct 15
Last Quarter
Oct 23
New
Oct 30
First Quarter

Hourly Weather History & Observations

Time (EDT) Temp. Dew Point Humidity Pressure Visibility Wind Dir Wind Speed Gust Speed Precip Events Conditions
12:51 AM 52.0 °F 33.1 °F 49% 29.95 in 10.0 mi SSW 5.8 mph - N/A   Overcast
1:51 AM 53.1 °F 34.0 °F 48% 29.92 in 10.0 mi SSW 13.8 mph 19.6 mph N/A   Overcast
2:51 AM 54.0 °F 35.1 °F 49% 29.91 in 10.0 mi SSW 10.4 mph - N/A   Mostly Cloudy
3:51 AM 53.1 °F 36.0 °F 52% 29.91 in 10.0 mi SSW 12.7 mph 16.1 mph N/A   Scattered Clouds
4:51 AM 52.0 °F 36.0 °F 54% 29.91 in 10.0 mi SSW 9.2 mph - N/A   Clear
5:51 AM 52.0 °F 37.0 °F 57% 29.93 in 10.0 mi SSW 13.8 mph - N/A   Mostly Cloudy
6:51 AM 52.0 °F 37.9 °F 59% 29.93 in 10.0 mi South 8.1 mph - N/A   Partly Cloudy
7:51 AM 52.0 °F 39.0 °F 61% 29.94 in 10.0 mi South 9.2 mph - N/A   Clear
8:51 AM 54.0 °F 41.0 °F 62% 29.96 in 10.0 mi South 8.1 mph - N/A   Clear
9:51 AM 59.0 °F 42.1 °F 53% 29.96 in 10.0 mi SSW 12.7 mph 21.9 mph N/A   Partly Cloudy
10:51 AM 57.9 °F 43.0 °F 58% 29.96 in 10.0 mi SSW 9.2 mph - N/A   Mostly Cloudy
11:51 AM 64.9 °F 46.0 °F 50% 29.91 in 10.0 mi SSW 15.0 mph - N/A   Clear
12:51 PM 69.1 °F 44.1 °F 40% 29.87 in 10.0 mi SW 18.4 mph 28.8 mph N/A   Partly Cloudy
1:51 PM 64.0 °F 44.1 °F 48% 29.87 in 10.0 mi SSW 12.7 mph 20.7 mph N/A   Overcast
2:15 PM 57.0 °F 48.9 °F 74% 29.96 in 1.8 mi WSW 18.4 mph 35.7 mph 0.02 in Rain Heavy Rain
2:30 PM 55.0 °F 51.1 °F 86% 29.97 in 2.5 mi WSW 16.1 mph 23.0 mph 0.13 in Rain Heavy Rain
2:51 PM 54.0 °F 51.1 °F 90% 29.95 in 3.0 mi SW 11.5 mph 21.9 mph 0.21 in Rain Rain
3:51 PM 54.0 °F 50.0 °F 86% 29.92 in 10.0 mi SSW 12.7 mph - 0.13 in Rain Light Rain
4:51 PM 55.9 °F 51.1 °F 84% 29.89 in 10.0 mi South 8.1 mph - 0.05 in   Mostly Cloudy
5:51 PM 57.9 °F 50.0 °F 75% 29.89 in 10.0 mi South 12.7 mph 18.4 mph N/A   Scattered Clouds
6:51 PM 55.9 °F 50.0 °F 80% 29.91 in 10.0 mi SSW 10.4 mph - N/A   Mostly Cloudy
7:51 PM 54.0 °F 51.1 °F 90% 29.91 in 9.0 mi Variable 5.8 mph - 0.01 in Rain Light Rain
8:07 PM 53.6 °F 48.2 °F 82% 29.96 in 2.5 mi West 20.7 mph 35.7 mph N/A Rain Heavy Rain
8:12 PM 52.0 °F 46.0 °F 80% 29.96 in 1.8 mi SW 15.0 mph 35.7 mph 0.17 in Rain Rain
8:14 PM 52.0 °F 46.9 °F 83% 29.96 in 2.0 mi SW 11.5 mph 35.7 mph 0.18 in Rain Rain
8:24 PM 52.0 °F 46.9 °F 83% 29.96 in 4.0 mi SW 15.0 mph 23.0 mph 0.22 in Rain Rain
8:49 PM 51.8 °F 48.2 °F 88% 29.99 in 3.0 mi SW 16.1 mph 23.0 mph 0.31 in Rain Heavy Rain
8:51 PM 52.0 °F 48.9 °F 89% 29.97 in 3.0 mi SW 11.5 mph 23.0 mph 0.32 in Rain Heavy Rain
9:51 PM 52.0 °F 46.9 °F 83% 29.98 in 8.0 mi NW 13.8 mph 25.3 mph 0.08 in Rain Rain
9:57 PM 51.1 °F 46.9 °F 86% 30.02 in 5.0 mi WNW 12.7 mph 20.7 mph 0.04 in Rain Heavy Rain
10:51 PM 50.0 °F 48.0 °F 93% 29.98 in 10.0 mi SE 5.8 mph - 0.11 in Rain Light Rain
11:42 PM 51.1 °F 46.0 °F 83% 30.03 in 2.0 mi Variable 5.8 mph - 0.19 in Rain Heavy Rain
11:51 PM 50.0 °F 46.0 °F 86% 30.00 in 2.5 mi SW 11.5 mph 18.4 mph 0.26 in Rain Heavy Rain